Location: Newark
(36.1358°N, 115.1208°W)
Time: 10:49:49
(UTC+00:00)

deb Explorer IX - Pass Details

Date: 18 February 2020
Orbit: 548 x 1100 km, 38.8° (Epoch: 07 April)

Event Time Altitude Azimuth Distance (km) Brightness Sun altitude
Rises 02:24:25 0° 275° (W) 3,003 ? -13.0°
Reaches altitude 10° 02:27:23 10° 255° (WSW) 2,186 ? -13.5°
Maximum altitude 02:30:42 17° 214° (SW) 1,845 ? -14.2°
Drops below altitude 10° 02:34:18 10° 175° (S) 2,423 ? -14.9°
Sets 02:37:52 0° 156° (SSE) 3,480 ? -15.7°
